This is the latest recevied weather packets stored in our database for station/object E22ZMG-2. If no packets are shown the sender has not sent any weather packets the latest 1 day(s).
| Time | Temp. | Humidity | Pressure | Rain* | Wind** | Luminosity | Snow |
|---|---|---|---|---|---|---|---|
| 1778034567 | 30.56° C | 58% | 927 hPa | - | 0 m/s | 0 W/m² | - |
| 1778033943 | 29.44° C | 60% | 927 hPa | - | 0 m/s | 0 W/m² | - |
| 1778033319 | 29.44° C | 62% | 927 hPa | - | 0 m/s | 0 W/m² | - |
| 1778032694 | 29.44° C | 62% | 927 hPa | - | 0 m/s | 0 W/m² | - |
| 1778032071 | 28.89° C | 63% | 927 hPa | - | 0 m/s | 0 W/m² | - |
| 1778031446 | 29.44° C | 62% | 927 hPa | - | 0 m/s | 0 W/m² | - |
| 1778030822 | 29.44° C | 58% | 927 hPa | - | 0 m/s | 0 W/m² | - |
| 1778030198 | 29.44° C | 61% | 927 hPa | - | 0 m/s | 0 W/m² | - |
| 1778029574 | 28.89° C | 62% | 927 hPa | - | 0 m/s | 0 W/m² | - |
| 1778028950 | 28.89° C | 62% | 927 hPa | - | 0 m/s | 0 W/m² | - |
| 1778028326 | 28.33° C | 63% | 927 hPa | - | 0 m/s | 0 W/m² | - |
| 1778027702 | 28.33° C | 64% | 927 hPa | - | 0 m/s | 0 W/m² | - |
| 1778027078 | 27.78° C | 65% | 927 hPa | - | 0 m/s | 0 W/m² | - |
| 1778026454 | 27.78° C | 65% | 927 hPa | - | 0 m/s | 0 W/m² | - |
| 1778025830 | 27.78° C | 66% | 927 hPa | - | 0 m/s | 0 W/m² | - |
| 1778025206 | 27.22° C | 69% | 927 hPa | - | 0 m/s | 0 W/m² | - |
| 1778024582 | 27.22° C | 69% | 927 hPa | - | 0 m/s | 0 W/m² | - |
| 1778023957 | 27.22° C | 69% | 927 hPa | - | 0 m/s | 0 W/m² | - |
| 1778023333 | 26.67° C | 70% | 927 hPa | - | 0 m/s | 0 W/m² | - |
| 1778022709 | 26.67° C | 70% | 927 hPa | - | 0 m/s | 0 W/m² | - |
| 1778022085 | 26.67° C | 69% | 926 hPa | - | 0 m/s | 0 W/m² | - |
| 1778021461 | 26.67° C | 70% | 926 hPa | - | 0 m/s | 0 W/m² | - |
| 1778020837 | 26.67° C | 70% | 926 hPa | - | 0 m/s | 0 W/m² | - |
| 1778020216 | 26.67° C | 70% | 926 hPa | - | 0 m/s | 0 W/m² | - |
| 1778019589 | 26.67° C | 69% | 926 hPa | - | 0 m/s | 0 W/m² | - |
* Rain since midnight (hover to see other rain measurements)
** Current wind speed in m/s (hover to see current wind gust speed)